Regional Weather Roundup
Issued by NWS Bismarck, ND

Home | Current Version | Previous Version | Text Only | Print | Product List | Glossary On
Versions: 1 2 3 4 5 6 7 8 9 10 11 12 13 14 15 16 17 18 19 20 21 22 23 24 25 26 27 28 29 30 31 32 33 34 35 36 37 38 39 40 41 42 43 44 45 46 47 48 49 50
000
ASUS43 KBIS 051010
RWRBIS

NWR BROADCAST TEXT
NATIONAL WEATHER SERVICE BISMARCK ND
500 AM CDT WED AUG 05 2015

NOTE: "FAIR" INDICATES FEW OR NO CLOUDS BELOW 12,000 FEET WITH NO
SIGNIFICANT WEATHER AND/OR OBSTRUCTIONS TO VISIBILITY.


CITY           SKY/WX    TMP DP  RH WIND       PRES   REMARKS
WILLISTON      CLOUDY    67  62  84 E5        29.88F
MINOT          CLOUDY    62  56  80 SE6       29.92F
MINOT AFB      CLOUDY    61  59  91 SE12      29.91F
BISMARCK       CLOUDY    62  57  83 NE5       29.98S
DICKINSON      MOCLDY    62  59  90 SE8       29.94R
GARRISON         N/A     64  61  90 SE8       29.94F
HETTINGER ARPT MOCLDY    63  60  90 SE6       29.96S
JAMESTOWN      MOCLDY    59  53  80 SE7       30.01F
BEACH          FAIR      61  61 100 SE8       29.94F
CROSBY         FAIR      63  63 100 NE3       29.89F
HARVEY         FAIR      59  55  88 SE9       29.99F
HAZEN          FAIR      64  59  82 SE8       29.96R
LINTON         FAIR      61  61 100 SE7       29.99S
MANDAN         PTSUNNY   63  59  88 E7        29.99R
OAKES            N/A     55  55 100 E5        30.02S
STANLEY        FAIR      63  63 100 NE6       29.90F
$$

CITY           SKY/WX    TMP DP  RH WIND       PRES   REMARKS
GRAND FORKS    PTCLDY    55  52  89 S5        30.02F
GRAND FORKS AF PTCLDY    50  49  95 SW5       30.03S
DEVILS LAKE    MOCLDY    61  50  67 E10       30.01S
FARGO          PTCLDY    59  54  83 SE8       30.03S
CAVALIER       FAIR      54  52  94 CALM      30.03S
GRAFTON        FAIR      54  54 100 E3        30.04S
GWINNER          N/A     55  55 100 CALM      30.03S
LANGDON        FAIR      55  52  88 SE9       30.04S
ROLLA          CLOUDY    55  54  94 SE9       30.02F
WALHALLA       FAIR      54  54 100 MISG      30.03S
$$

CITY           SKY/WX    TMP DP  RH WIND       PRES   REMARKS
ABERDEEN       PTCLDY    59  55  87 SE3       30.01S
MOBRIDGE       PTCLDY    68  65  90 SE10      29.96F
BUFFALO          N/A     60  59  96 W6        29.91F
RAPID CITY     PTCLDY    63  60  90 SE3       29.99S
GLASGOW        PTCLDY    62  59  90 E7        29.89S
SIDNEY         CLOUDY    64  61  88 CALM      29.88S
WOLF POINT     PTCLDY    62  60  93 CALM      29.88S FOG
GLENDIVE         N/A    N/A N/A N/A MISG        N/A
MILES CITY     CLEAR     59  58  96 SE7       29.92F
BAKER          PTCLDY    62  58  86 S12       29.96F
$$

CITY           SKY/WX    TMP DP  RH WIND       PRES   REMARKS
BILLINGS       PTCLDY    59  54  83 SW9       29.98S
GREAT FALLS    PTCLDY    55  49  80 NW13      29.94R
REGINA         LGT RAIN  61  57  88 SE9       29.90F
ESTEVAN        CLOUDY    63  57  82 E3        29.90F
$$



USA.gov is the U.S. government's official web portal to all federal, state and local government web resources and services.